[[{"header":{"parameterUnit":"m.s-1","parameterCategory":1,"la1":30.2991,"la2":30.254,"lo1":-89.0895,"lo2":-89.0444,"dy":0.0017,"dx":0.0017,"nx":28,"ny":28,"refTime":"2024-02-02T09:00:00:Z","depth":0,"parameterNumber":2,"parameterNumberName":"U-component_of_WINDS"},"data":[0,0,0,0,0,0,0,0,0,0,0,0,0,0,0,0,0,0,0,0,0,0,0,0,0,0,0,0,0,0,0,0,0,0,0,0,0,0,0,0,0,0,0,0,0,0,0,0,0,0,0,0,0,0,0,0,0,0,-0.4065,-0.4064,0,-0.3994,-0.3993,-0.3992,-0.3942,-0.3942,-0.3942,-0.3941,-0.3868,-0.3866,-0.3865,0,0,0,0,0,0,0,0,0,0,0,0,0,-0.4157,-0.4156,-0.4065,-0.4064,-0.4063,-0.3994,-0.3993,-0.3992,-0.3942,-0.3942,-0.3941,-0.3941,-0.3868,-0.3866,-0.3865,0,0,0,0,0,0,0,0,0,0,0,0,0,-0.4105,-0.4155,-0.4065,-0.403,-0.4026,-0.3994,-0.3993,-0.3992,-0.3943,-0.3942,-0.3941,-0.3941,-0.3869,-0.3867,-0.3864,-0.3861,0,0,-0.3857,-0.3856,0,0,0,0,0,0,0,0,-0.4108,-0.4102,-0.4036,-0.4032,-0.4028,-0.3976,-0.3999,-0.3948,-0.3943,-0.3974,-0.3941,-0.394,-0.3904,-0.3899,-0.3887,-0.3858,-0.3855,-0.3857,-0.3855,-0.3854,-0.3854,0,0,0,0,0,0,0,-0.4112,-0.4104,-0.4037,-0.4035,-0.403,-0.4018,-0.401,-0.3989,-0.3943,-0.3971,-0.3968,-0.396,-0.3902,-0.3889,-0.3885,-0.3854,-0.3857,-0.3855,-0.3853,-0.3852,-0.382,-0.3821,0,0,0,0,0,0,-0.4121,-0.4108,-0.4039,-0.4035,-0.4067,-0.4017,-0.4008,-0.3994,-0.3944,-0.3935,-0.3961,-0.3958,-0.3894,-0.3888,-0.3882,-0.3876,-0.3854,-0.3852,-0.3851,-0.382,-0.382,-0.3821,0,0,0,0,0,0,-0.4123,-0.4115,-0.4042,-0.407,-0.406,-0.4016,-0.4,-0.3992,-0.398,-0.3935,-0.3927,-0.3956,-0.3893,-0.3885,-0.3867,-0.3873,-0.3851,-0.3849,-0.3819,-0.382,-0.3821,-0.3864,0,0,0,0,0,0,-0.4126,-0.4116,-0.4114,-0.407,-0.4059,-0.4028,-0.4001,-0.3991,-0.3976,-0.3972,-0.3929,-0.3921,-0.3892,-0.3871,-0.3865,-0.3869,-0.3847,-0.3818,-0.3819,-0.3821,-0.3862,-0.3867,-0.387,0,0,0,0,0,-0.4129,-0.4129,-0.4115,-0.4107,-0.4055,-0.4029,-0.4022,-0.3989,-0.3977,-0.3975,-0.3946,-0.3922,-0.3874,-0.387,-0.3862,-0.3866,-0.3818,-0.3819,-0.382,-0.386,-0.3866,-0.387,0,0,0,0,0,0,-0.4174,-0.4122,-0.4106,-0.4091,-0.4065,-0.402,-0.4017,-0.3995,-0.3971,-0.3968,-0.3928,-0.3918,-0.3905,-0.3883,-0.388,-0.3862,-0.3843,-0.3843,-0.3876,-0.3881,-0.3885,-0.389,-0.3845,0,0,0,0,0,-0.4182,-0.4165,-0.4121,-0.4112,-0.41,-0.4061,-0.4048,-0.4025,-0.3995,-0.3984,-0.3954,-0.3927,-0.3905,-0.3892,-0.3869,-0.3859,-0.385,-0.3858,-0.3862,-0.3866,-0.3866,-0.3861,-0.3864,-0.3825,-0.3825,-0.3825,0,0,-0.4199,-0.4169,-0.416,-0.4121,-0.4097,-0.4081,-0.4052,-0.4035,-0.4022,-0.3981,-0.3962,-0.394,-0.3907,-0.3893,-0.3885,-0.3875,-0.3875,-0.3868,-0.3871,-0.3869,-0.3863,-0.3866,-0.387,-0.3826,-0.3826,-0.3826,0,0,-0.4221,-0.4196,-0.4187,-0.4165,-0.413,-0.4104,-0.4102,-0.4061,-0.4045,-0.4026,-0.3995,-0.398,-0.3943,-0.3921,-0.3905,-0.3921,-0.3898,-0.3915,-0.3936,-0.3931,-0.3934,-0.3937,-0.3943,-0.3946,-0.3915,-0.3915,-0.3915,0,-0.4246,-0.4219,-0.4185,-0.417,-0.4154,-0.4117,-0.4108,-0.4088,-0.4048,-0.4038,-0.4027,-0.3981,-0.3956,-0.3937,-0.3942,-0.393,-0.3927,-0.3919,-0.3937,-0.3939,-0.3941,-0.3946,-0.3949,-0.3918,-0.3917,-0.3917,-0.3917,0,-0.4252,-0.4235,-0.4231,-0.4195,-0.4178,-0.4166,-0.413,-0.4118,-0.4097,-0.4072,-0.4054,-0.4023,-0.3994,-0.3988,-0.3967,-0.3967,-0.3962,-0.3944,-0.3925,-0.3947,-0.3952,-0.3954,-0.3921,-0.392,-0.3919,-0.3919,0,0,-0.4299,-0.4245,-0.4244,-0.4228,-0.4188,-0.4173,-0.416,-0.4133,-0.4124,-0.4098,-0.4086,-0.4057,-0.4041,-0.4023,-0.3999,-0.3995,-0.4011,-0.3978,-0.3977,-0.3986,-0.401,-0.4024,-0.4027,-0.3996,-0.3996,-0.3996,-0.4013,0,-0.4316,-0.429,-0.426,-0.4245,-0.4229,-0.4195,-0.4183,-0.4158,-0.4135,-0.4119,-0.4093,-0.4074,-0.4054,-0.4043,-0.4037,-0.401,-0.4015,-0.4009,-0.3985,-0.3985,-0.3995,-0.4029,-0.4043,-0.406,-0.4015,-0.4015,-0.4015,0,-0.4331,-0.4308,-0.4292,-0.4255,-0.4247,-0.4237,-0.421,-0.4194,-0.4165,-0.4149,-0.413,-0.4105,-0.409,-0.4073,-0.4053,-0.4049,-0.4038,-0.4023,-0.4023,-0.402,-0.4002,-0.4027,-0.4065,-0.4068,-0.4018,-0.4017,-0.4017,0,-0.4368,-0.4333,-0.4319,-0.4306,-0.4262,-0.4256,-0.4237,-0.4208,-0.4194,-0.4171,-0.4161,-0.4137,-0.4123,-0.4105,-0.4074,-0.4064,-0.4057,-0.4037,-0.4044,-0.4045,-0.4043,-0.4044,-0.4081,-0.4036,-0.4036,-0.4036,-0.4036,0,-0.4389,-0.4381,-0.4335,-0.4327,-0.4317,-0.4282,-0.4273,-0.4251,-0.4226,-0.4213,-0.4182,-0.417,-0.413,-0.4114,-0.409,-0.4077,-0.4071,-0.4058,-0.4052,-0.4061,-0.4063,-0.4053,-0.4051,-0.4037,-0.4036,-0.4036,-0.4036,0,-0.4429,-0.4397,-0.438,-0.4341,-0.4331,-0.4325,-0.4291,-0.4282,-0.4258,-0.4243,-0.4237,-0.42,-0.4179,-0.4147,-0.4117,-0.4101,-0.4093,-0.4082,-0.4103,-0.4099,-0.4108,-0.4108,-0.414,-0.4142,-0.4096,-0.4097,-0.4097,0,-0.4445,-0.4438,-0.4398,-0.4387,-0.437,-0.4353,-0.4339,-0.4305,-0.4292,-0.4259,-0.4254,-0.4232,-0.4212,-0.4181,-0.4152,-0.4129,-0.4118,-0.413,-0.4114,-0.4124,-0.4119,-0.412,-0.4119,-0.4134,-0.4135,-0.4136,-0.4136,0,-0.4476,-0.4462,-0.4443,-0.4419,-0.4403,-0.4383,-0.436,-0.4354,-0.4315,-0.4302,-0.4281,-0.4266,-0.4236,-0.4214,-0.4188,-0.4169,-0.4146,-0.4142,-0.4142,-0.4151,-0.4164,-0.4158,-0.4114,-0.4141,-0.414,-0.414,-0.414,-0.414,-0.4505,-0.4498,-0.4469,-0.4449,-0.4429,-0.441,-0.44,-0.4375,-0.4357,-0.4331,-0.4312,-0.4293,-0.4265,-0.4227,-0.421,-0.4195,-0.4185,-0.4185,-0.4185,-0.4186,-0.419,-0.4167,-0.419,-0.419,-0.4189,-0.4189,-0.4189,0,-0.4536,-0.4516,-0.4498,-0.4469,-0.4454,-0.4434,-0.4409,-0.4398,-0.4382,-0.4358,-0.434,-0.4317,-0.4296,-0.4265,-0.4243,-0.4237,-0.4226,-0.4232,-0.4232,-0.4228,-0.42,-0.4202,-0.4241,-0.4241,-0.4241,-0.4241,-0.4241,-0.4241,-0.455,-0.4537,-0.4519,-0.4497,-0.4477,-0.4458,-0.4446,-0.4428,-0.4409,-0.4385,-0.4368,-0.4348,-0.4322,-0.4297,-0.4278,-0.4269,-0.4263,-0.4272,-0.4261,-0.4235,-0.423,-0.4225,-0.4227,-0.4271,-0.4271,-0.429,-0.4291,-0.4291]},{"header":{"parameterUnit":"m.s-1","parameterCategory":1,"la1":30.2991,"la2":30.254,"lo1":-89.0895,"lo2":-89.0444,"dy":0.0017,"dx":0.0017,"nx":28,"ny":28,"refTime":"2024-02-02T09:00:00:Z","depth":0,"parameterNumber":3,"parameterNumberName":"V-component_of_WINDS"},"data":[0,0,0,0,0,0,0,0,0,0,0,0,0,0,0,0,0,0,0,0,0,0,0,0,0,0,0,0,0,0,0,0,0,0,0,0,0,0,0,0,0,0,0,0,0,0,0,0,0,0,0,0,0,0,0,0,0,0,1.3711,1.3711,0,1.372,1.372,1.372,1.3755,1.3755,1.3756,1.3757,1.3762,1.3762,1.3761,0,0,0,0,0,0,0,0,0,0,0,0,0,1.3722,1.3722,1.3711,1.3711,1.3711,1.372,1.372,1.372,1.3755,1.3756,1.3757,1.3757,1.3763,1.3762,1.3761,0,0,0,0,0,0,0,0,0,0,0,0,0,1.3723,1.3722,1.3711,1.373,1.3732,1.372,1.372,1.372,1.3754,1.3756,1.3757,1.3758,1.3763,1.3762,1.3761,1.3731,0,0,1.3758,1.3758,0,0,0,0,0,0,0,0,1.3723,1.3722,1.3727,1.3728,1.373,1.3737,1.3726,1.3723,1.3754,1.3746,1.3757,1.3759,1.3753,1.3753,1.3752,1.3731,1.3731,1.3758,1.3758,1.3757,1.3757,0,0,0,0,0,0,0,1.3722,1.3722,1.3714,1.3727,1.3729,1.3737,1.3738,1.3725,1.3742,1.3746,1.3749,1.375,1.3754,1.3752,1.3752,1.3731,1.3758,1.3757,1.3757,1.3756,1.3686,1.3685,0,0,0,0,0,0,1.372,1.3722,1.3714,1.3715,1.373,1.3736,1.3737,1.3734,1.3742,1.3745,1.3749,1.3751,1.3753,1.3753,1.3752,1.3718,1.3757,1.3756,1.3756,1.3687,1.3686,1.3684,0,0,0,0,0,0,1.372,1.3719,1.3714,1.3719,1.3719,1.3734,1.373,1.3733,1.3732,1.3744,1.3747,1.3744,1.3754,1.3754,1.3736,1.3718,1.3756,1.3755,1.3689,1.3687,1.3685,1.3647,0,0,0,0,0,0,1.3721,1.3719,1.3708,1.3719,1.3718,1.3698,1.3729,1.3733,1.3731,1.3734,1.3741,1.3743,1.3755,1.3737,1.3735,1.3718,1.3754,1.3691,1.3688,1.3686,1.365,1.3644,1.3639,0,0,0,0,0,1.3721,1.3697,1.3708,1.3707,1.3706,1.3697,1.3697,1.3713,1.3729,1.3718,1.3726,1.3743,1.3721,1.3735,1.3733,1.3715,1.3692,1.3689,1.3686,1.3653,1.3646,1.364,0,0,0,0,0,0,1.3683,1.3698,1.3711,1.3689,1.3692,1.3703,1.369,1.3705,1.3702,1.3705,1.3724,1.3725,1.3704,1.3708,1.3724,1.3686,1.3709,1.3705,1.3684,1.3678,1.3672,1.3672,1.3754,0,0,0,0,0,1.3673,1.3665,1.3679,1.3659,1.3659,1.3674,1.3671,1.3683,1.3686,1.3687,1.3693,1.3694,1.3688,1.3683,1.3678,1.3651,1.3653,1.3637,1.3632,1.3627,1.3624,1.361,1.3603,1.3675,1.3675,1.3675,0,0,1.365,1.3658,1.3652,1.3651,1.3655,1.3646,1.3675,1.3664,1.3658,1.3685,1.3669,1.3674,1.3676,1.3654,1.3645,1.3656,1.3605,1.3624,1.362,1.3619,1.3606,1.36,1.3594,1.3673,1.3673,1.3673,0,0,1.3605,1.361,1.3594,1.3597,1.3602,1.3612,1.3608,1.3617,1.3622,1.3606,1.3627,1.3618,1.3607,1.3608,1.3607,1.3562,1.3577,1.356,1.3531,1.3517,1.3511,1.3506,1.349,1.3484,1.3556,1.3556,1.3556,0,1.3576,1.3565,1.3583,1.3572,1.3571,1.3596,1.3579,1.3581,1.3583,1.3582,1.3595,1.3581,1.3584,1.3563,1.3552,1.355,1.3546,1.3559,1.3511,1.3506,1.3502,1.3486,1.348,1.3554,1.3554,1.3554,1.3555,0,1.3529,1.3521,1.3507,1.351,1.3508,1.3493,1.3509,1.3504,1.3516,1.3524,1.3508,1.3513,1.3509,1.3505,1.3516,1.3485,1.3492,1.3508,1.3531,1.3492,1.3478,1.3473,1.3551,1.3552,1.3552,1.3553,0,0,1.346,1.3474,1.3469,1.347,1.3478,1.3471,1.3458,1.3455,1.345,1.3451,1.344,1.3429,1.3444,1.3443,1.3455,1.3443,1.3407,1.346,1.346,1.345,1.3372,1.336,1.3353,1.3417,1.3416,1.3415,1.3371,0,1.3417,1.3396,1.3413,1.3388,1.3381,1.3405,1.3393,1.3396,1.3403,1.3397,1.3405,1.3397,1.3417,1.3417,1.3406,1.3413,1.3391,1.3417,1.3406,1.3405,1.3404,1.3345,1.3332,1.3291,1.3366,1.3365,1.3364,0,1.3364,1.3364,1.3339,1.3348,1.3346,1.3335,1.3334,1.3328,1.3331,1.3337,1.3336,1.3351,1.3337,1.3361,1.3342,1.3359,1.3356,1.3358,1.3357,1.3356,1.3382,1.3343,1.3278,1.3272,1.3356,1.3357,1.3357,0,1.3316,1.3309,1.3294,1.3294,1.3305,1.3297,1.33,1.3305,1.3302,1.3301,1.3299,1.3295,1.3293,1.329,1.3303,1.3319,1.3282,1.3307,1.3287,1.3286,1.3278,1.3278,1.3211,1.3276,1.3276,1.3276,1.3276,0,1.3266,1.325,1.3272,1.3263,1.3245,1.3263,1.3245,1.3251,1.3255,1.3246,1.3266,1.3258,1.3276,1.3268,1.3278,1.3261,1.326,1.3264,1.3267,1.3262,1.3262,1.326,1.3263,1.3274,1.3275,1.3275,1.3275,0,1.321,1.3224,1.3208,1.322,1.3222,1.3209,1.3218,1.3209,1.3218,1.3206,1.3205,1.3218,1.3211,1.3224,1.3217,1.3224,1.32,1.3208,1.3199,1.3201,1.318,1.3182,1.311,1.3101,1.3171,1.3171,1.317,0,1.3177,1.3165,1.3175,1.3172,1.3174,1.3168,1.3165,1.3183,1.3179,1.3182,1.3173,1.3167,1.3164,1.315,1.3159,1.3154,1.3161,1.3136,1.316,1.3156,1.316,1.3161,1.3159,1.3131,1.313,1.3129,1.3129,0,1.3117,1.3125,1.3121,1.312,1.3116,1.3116,1.3117,1.3112,1.3131,1.3125,1.3119,1.3116,1.311,1.3104,1.3101,1.3104,1.3119,1.3121,1.3116,1.3111,1.3107,1.3109,1.3186,1.3123,1.3123,1.3124,1.3124,1.3124,1.3071,1.3062,1.3067,1.3063,1.3065,1.3066,1.3058,1.3066,1.3061,1.3058,1.3069,1.3059,1.3063,1.3061,1.3062,1.3054,1.3065,1.3058,1.3056,1.3054,1.305,1.3108,1.3054,1.3054,1.3054,1.3054,1.3054,0,1.3012,1.3017,1.3012,1.3013,1.3009,1.3025,1.3027,1.3022,1.3014,1.3016,1.3013,1.3004,1.2999,1.3007,1.3002,1.2995,1.3001,1.2993,1.2993,1.2994,1.3041,1.3046,1.2987,1.2987,1.2987,1.2987,1.2987,1.2987,1.298,1.2966,1.2974,1.296,1.2965,1.2957,1.2957,1.2957,1.2959,1.2949,1.2945,1.2951,1.2955,1.2951,1.2946,1.2949,1.2946,1.2935,1.2939,1.2984,1.299,1.2996,1.3001,1.2934,1.2934,1.2893,1.2892,1.2892]}]]